Home   Weather   Prudhoe Bay   Past weeks
Flag for USA

Past Weather in Prudhoe Bay, Alaska, USA — Yesterday and Last 2 Weeks

Now
27 °F

Sunny.


Feels Like: 18 °F
Forecast: 27 / 20 °F
Wind: 9 mph from East

Location: Deadhorse Airport

Current Time: Oct 15, 2019 at 6:19:59 pm

Latest Report: Oct 15, 2019 at 4:53 pm


Visibility: 10 mi

Pressure: 29.62 "Hg

Humidity: 89%

Dew Point: 24 °F

Location of Prudhoe BayLocation

Past Weather in Prudhoe Bay — Graph

°F

Prudhoe Bay Temperature Yesterday

Maximum temperature yesterday: 26 °F (at 2:53 pm)
Minimum temperature yesterday: 14 °F (at 7:53 pm)
Average temperature yesterday: 18 °F

High & Low Weather Summary for the Past Weeks

 TemperatureHumidityPressure
High42 °F (Sep 30, 4:53 pm)100% (Oct 1, 9:07 am)30.16 "Hg (Oct 1, 9:07 am)
Low13 °F (Oct 13, 5:53 am)66% (Oct 5, 11:53 am)29.25 "Hg (Oct 4, 6:53 pm)
Average30 °F90%29.82 "Hg
* Reported Sep 30 4:53 pm — Oct 15 4:53 pm, Prudhoe Bay. Weather by CustomWeather, © 2019

Note: Actual official high and low records may vary slightly from our data, if they occured in-between our weather recording intervals... More about our weather records

Advertising

Prudhoe Bay Weather History for the Previous 24 Hours

Scroll right to see more
 ConditionsComfort  
Time TempWeatherWind HumidityBarometerVisibility
4:53 pm
Tue, Oct 15
27 °FSunny.9 mph89%29.62 "Hg10 mi
3:53 pm29 °FSunny.10 mph89%29.64 "Hg10 mi
2:53 pm29 °FSunny.10 mph85%29.65 "Hg10 mi
1:53 pm28 °FSunny.12 mph85%29.67 "Hg10 mi
12:53 pm28 °FSunny.14 mph85%29.67 "Hg10 mi
11:53 am25 °FSunny.10 mph85%29.69 "Hg10 mi
10:53 am22 °FSunny.8 mph89%29.70 "Hg10 mi
9:53 am20 °FPassing clouds.9 mph92%29.71 "Hg10 mi
9:36 am21 °FScattered clouds.9 mph88%29.71 "Hg10 mi
8:53 am19 °FPassing clouds.9 mph88%29.72 "Hg10 mi
7:53 am19 °FClear.8 mph92%29.74 "Hg10 mi
6:53 am22 °FClear.10 mph85%29.75 "Hg10 mi
5:53 am22 °FClear.10 mph85%29.75 "Hg10 mi
4:53 am20 °FClear.10 mph85%29.77 "Hg10 mi
3:53 am22 °FClear.15 mph82%29.79 "Hg10 mi
2:53 am18 °FClear.10 mph88%29.81 "Hg10 mi
1:53 am16 °FClear.8 mph87%29.82 "Hg10 mi
12:53 am18 °FClear.10 mph84%29.84 "Hg10 mi
11:53 pm
Mon, Oct 14
18 °FClear.9 mph84%29.85 "Hg10 mi
10:53 pm16 °FClear.7 mph84%29.87 "Hg10 mi
9:53 pm15 °FClear.7 mph87%29.89 "Hg10 mi
8:53 pm15 °FClear.8 mph83%29.90 "Hg10 mi
7:53 pm14 °FClear.8 mph87%29.93 "Hg10 mi
6:53 pm15 °FClear.8 mph87%29.93 "Hg10 mi
Weather by CustomWeather, © 2019

See weather overview